Lid_Strength_Index
7 7 7 7 7 7 7 7 9 7 7 6 5 4 4 3 3 3 4 4 3 3 3 2 2 2 1 1 1 1 1 1 1 1 0 1 1 0 0 -0 -0 -0 -0 -0
8 7 7 8 7 7 7 7 7 7 7 4 4 3 3 3 3 3 3 3 3 3 3 3 2 2 2 1 1 1 1 1 1 1 1 1 1 1 0 0 -0 -0 -0 -0
10 7 7 9 8 7 7 6 6 8 6 4 4 4 4 3 3 3 3 3 3 3 3 2 2 2 2 1 1 1 1 1 1 1 1 1 1 1 1 1 0 0 -0 -0
9 8 12 7 5 5 6 6 5 5 5 4 4 3 3 3 3 3 3 2 2 2 2 2 2 1 1 1 1 1 1 1 2 1 2 1 1 1 1 0 0 0 0 -0
10 10 8 7 6 6 7 7 5 5 4 4 3 3 3 2 2 3 2 2 2 2 2 2 2 1 2 2 2 2 2 2 1 1 1 1 1 1 0 0 0 0 -0 -0
9 11 12 7 5 4 4 9 4 4 4 4 4 6 5 2 2 2 2 2 2 2 2 2 2 1 2 2 2 2 2 1 1 1 1 2 1 1 0 0 0 0 0 -0
10 10 8 5 5 4 10 8 4 4 4 4 5 4 3 3 3 2 2 2 2 2 2 2 1 1 2 2 2 1 1 1 1 1 1 1 1 1 1 0 0 0 0 -0
10 10 12 5 6 7 4 3 4 4 4 3 3 4 4 4 3 3 3 3 2 3 3 2 1 1 2 2 1 1 1 1 1 1 1 1 1 1 1 0 1 1 1 1
8 9 4 4 5 3 5 5 4 4 4 3 4 4 4 4 4 3 3 3 2 2 2 2 1 1 2 2 1 1 1 1 1 1 1 1 1 1 1 1 1 1 2 1
6 5 4 4 4 4 4 4 4 4 4 4 4 4 4 4 4 3 3 3 2 2 2 2 2 1 1 1 1 1 2 2 1 1 1 1 1 1 1 1 2 2 1 2
7 5 5 5 4 4 4 4 4 3 3 4 4 4 4 3 3 3 3 2 2 2 2 2 1 1 1 1 1 2 1 1 2 1 1 1 2 3 1 1 2 1 1 1
8 5 6 4 4 4 4 4 4 4 4 3 3 3 3 3 3 2 3 3 2 2 2 1 1 1 1 0 0 1 2 2 2 2 2 1 2 5 11 10 10 10 10 5
6 5 4 4 4 3 4 4 3 3 3 3 2 3 3 3 2 4 2 2 2 2 2 1 1 1 1 0 0 1 2 2 2 2 2 2 3 3 3 7 12 12 11 10
4 4 5 5 5 3 3 3 3 2 2 2 2 2 2 2 2 2 2 2 2 1 2 2 1 2 1 1 1 1 1 5 1 2 1 2 2 2 2 2 2 6 9 7
4 4 4 3 3 3 3 3 3 3 3 3 2 3 3 3 3 2 2 2 1 1 2 2 2 2 1 1 1 1 1 1 1 1 1 1 1 1 1 1 3 4 4 7
4 4 4 4 4 3 3 3 4 4 3 3 3 3 3 3 3 2 2 1 2 3 2 1 2 1 0 0 1 1 1 3 2 1 1 1 1 1 2 2 2 2 3 3
5 6 5 5 5 4 4 4 4 4 4 4 4 3 3 3 3 2 2 1 1 1 1 1 1 0 0 -0 0 0 1 1 2 0 1 1 1 1 1 1 2 1 1 2
3 3 3 4 4 4 4 3 3 3 3 2 2 2 2 2 2 2 2 1 1 1 1 1 0 0 0 -0 -0 -1 -1 0 1 1 1 1 1 1 1 1 1 1 1 4
3 4 3 3 3 3 3 3 3 2 2 2 2 2 2 2 2 2 1 2 2 2 2 1 1 0 0 1 1 -1 -0 0 0 0 0 2 1 1 1 1 2 1 1 3
4 3 3 3 3 3 3 2 2 2 2 2 2 2 2 2 2 2 1 2 1 1 0 0 0 0 0 0 1 -0 -0 -0 0 1 1 1 1 1 1 3 1 1 1 2
5 4 4 4 4 3 2 2 2 3 2 2 2 2 2 2 2 2 2 3 1 1 1 1 -0 -0 -0 0 0 0 0 0 1 0 1 1 1 1 1 1 1 2 1 2
4 5 5 4 4 3 2 2 2 2 2 2 2 2 2 2 2 2 1 2 1 5 1 0 0 2 0 2 -0 1 1 1 1 0 1 0 1 1 1 1 1 1 4 4
4 4 3 3 3 3 2 2 2 2 2 2 3 2 3 2 2 3 3 1 1 2 0 0 3 3 2 0 0 1 1 0 1 1 1 1 1 1 1 1 1 1 3 3
4 3 3 2 2 3 3 3 2 2 2 2 2 2 2 2 2 1 1 4 6 3 0 1 2 4 5 0 0 0 0 0 1 1 0 4 0 0 2 2 3 3 2 3
4 3 3 4 5 5 3 2 2 2 2 2 1 1 1 1 1 1 1 1 5 3 0 6 4 4 0 -0 -0 1 1 0 0 1 1 1 2 1 0 0 1 0 0 0
2 3 2 2 2 2 3 3 3 2 2 2 2 2 1 1 1 0 0 2 0 3 0 0 0 0 -0 0 0 0 1 2 2 2 2 1 1 0 0 0 0 0 0 1
2 4 2 2 2 1 2 2 2 3 3 1 2 1 3 1 1 2 3 1 0 0 0 -0 0 2 0 0 1 1 0 1 4 2 1 1 0 0 0 0 0 0 1 1